Date,TemperatureHighF,TemperatureAvgF,TemperatureLowF,DewpointHighF,DewpointAvgF,DewpointLowF,HumidityHigh,HumidityAvg,HumidityLow,PressureMaxIn,PressureMinIn,WindSpeedMaxMPH,WindSpeedAvgMPH,GustSpeedMaxMPH,PrecipitationSumIn
2013-4-1,60.4,45.6,31.5,31.1,19.8,10.1,68,37,21,30.08,29.90,17,4,19,0.00
2013-4-2,43.7,39.8,37.6,37.4,29.9,22.9,89,69,45,30.02,29.93,8,2,8,0.04
2013-4-3,64.4,47.3,37.0,39.2,27.1,12.7,92,55,16,30.05,29.96,10,1,10,0.00
2013-4-4,75.2,52.9,31.8,25.2,18.2,10.2,56,29,13,30.08,29.96,10,3,10,0.00
2013-4-5,77.0,58.5,43.2,26.1,17.9,11.1,35,22,11,29.96,29.69,37,3,37,0.00
2013-4-6,68.2,55.6,40.8,21.4,16.3,8.1,29,22,15,29.90,29.81,20,4,24,0.00
2013-4-7,68.9,54.3,40.5,29.5,19.1,12.4,49,27,15,29.81,29.69,19,4,19,0.00
2013-4-8,70.9,47.1,27.7,27.2,21.2,15.9,85,39,14,29.78,29.40,20,4,20,0.00
2013-4-9,27.7,19.2,12.4,22.9,13.5,6.0,82,78,74,30.05,29.78,13,4,13,0.00
2013-4-10,32.5,20.8,7.0,24.5,12.9,0.6,87,71,54,30.02,29.75,11,3,11,0.08
2013-4-11,57.4,38.5,19.4,32.8,21.4,11.9,78,54,26,29.84,29.66,16,2,16,0.00
2013-4-12,65.5,44.0,29.3,35.8,22.0,15.8,71,44,16,29.90,29.78,18,3,18,0.00
2013-4-13,72.5,49.9,28.4,25.7,17.8,9.9,69,36,11,29.87,29.43,15,3,15,0.00
2013-4-14,57.0,44.8,34.2,45.2,20.6,1.0,97,49,15,29.72,29.49,27,6,27,0.08
2013-4-15,39.0,32.1,25.0,27.3,18.5,1.5,85,62,21,29.93,29.63,19,3,19,0.00
2013-4-16,37.0,30.6,24.6,33.9,25.9,19.3,89,83,78,29.93,29.75,15,4,15,0.12
2013-4-17,33.6,28.7,21.4,30.7,26.4,18.6,97,91,87,30.02,29.84,11,4,11,0.04
2013-4-18,41.2,27.6,14.2,29.3,18.5,8.4,89,71,35,30.05,29.96,12,3,12,0.04
2013-4-19,60.4,40.6,20.7,25.3,14.2,10.2,66,38,17,30.02,29.87,15,2,15,0.00
2013-4-20,65.5,48.5,32.0,26.4,20.0,13.7,52,33,18,29.93,29.81,10,2,10,0.00
2013-4-21,70.3,51.3,33.8,25.8,18.2,9.0,57,31,13,29.99,29.90,17,2,17,0.00
2013-4-22,55.8,35.4,24.1,29.2,22.6,16.1,89,63,32,30.14,29.81,17,3,17,0.00
2013-4-23,41.2,28.4,22.6,36.8,25.4,18.8,98,89,62,30.11,30.02,8,3,8,0.08
2013-4-24,63.5,39.2,21.2,42.8,19.5,5.2,92,56,13,30.08,29.99,15,3,15,0.00
2013-4-25,66.7,48.3,27.0,21.3,13.4,8.7,53,28,12,30.05,29.84,10,2,10,0.00
2013-4-26,72.1,53.0,32.7,23.2,14.6,6.0,48,24,11,30.14,29.93,13,2,13,0.00
2013-4-27,82.0,58.3,35.6,23.3,15.1,5.2,41,21,9,30.14,29.99,13,3,13,0.00
2013-4-28,83.7,62.6,38.1,24.6,16.5,6.5,34,19,9,30.02,29.84,15,3,15,0.00
2013-4-29,86.0,67.1,46.9,28.2,19.2,9.2,36,17,9,29.93,29.69,18,3,18,0.00
2013-4-30,64.9,53.1,40.6,30.5,22.9,10.0,64,32,17,29.96,29.66,15,3,15,0.00